Location: ?
(35.4064°N, 139.3593°E)
Time: 09:56:19
(UTC+00:00)

Daily predictions for brighter satellites

Satellite Brightness Start Highest point End
(mag) Time Altitude Azimuth Time Altitude Azimuth Time Altitude Azimuth
SPOT 5 3.8 12:10:19 48° W 12:10:19 48° W 12:15:11 10° NNW
Cosmos 2297 Rocket 2.6 12:07:05 10° NNW 12:11:32 57° NNW 12:11:32 57° NNW
Terra 3.4 12:26:36 32° NNW 12:26:36 32° NNW 12:29:12 10° NNW
Ariane Rocket 4.5 12:35:50 34° NW 12:35:50 34° NW 12:38:46 10° NNW
Cosmos 2263 Rocket 4.2 12:35:25 10° N 12:37:43 20° NNE 12:37:43 20° NNE
CENTAUR R/B 3.9 12:40:55 10° NNW 12:48:54 42° NE 12:49:06 42° NE
Cosmos 1980 Rocket 4.3 13:26:47 22° N 13:26:47 22° N 13:28:55 10° N
Cosmos 2227 Rocket 4.3 13:23:00 10° NW 13:25:06 22° NW 13:25:06 22° NW
CZ-4C R/B 3.9 13:37:09 10° NW 13:42:13 44° WNW 13:42:13 44° WNW
CENTAUR R/B 4.4 14:31:30 10° NW 14:36:15 35° WNW 14:36:15 35° WNW
ATLAS 2AS CENTAUR R/B 4.3 16:11:36 26° E 16:11:36 26° E 16:16:32 10° NE
Cosmos 2219 Rocket 4.4 16:18:57 18° NNW 16:18:57 18° NNW 16:20:50 10° N
Cosmos 2278 Rocket 3.8 16:17:51 10° N 16:22:01 30° NE 16:22:01 30° NE
CZ-2D R/B 3.7 16:27:06 10° NNE 16:29:59 32° NNE 16:29:59 32° NNE
SL-16 R/B 4.2 16:38:49 20° E 16:38:49 20° E 16:42:27 10° NE
CZ-2C R/B 4.3 16:43:44 10° NNE 16:47:15 40° NE 16:47:15 40° NE
SL-16 R/B 3.3 16:56:07 40° ESE 16:57:35 48° ENE 17:03:30 10° N
Resurs 1-4 Rocket 3.5 16:53:20 10° N 16:56:15 33° N 16:56:15 33° N
IDEFIX/ARIANE 42P 4.2 16:54:18 10° N 16:56:46 27° NNW 16:56:46 27° NNW
Cosmos 1943 Rocket 3.5 16:56:28 10° N 17:01:43 37° ENE 17:04:50 21° ESE
CZ-2C R/B 3.6 17:08:45 40° NNW 17:08:45 40° NNW 17:12:05 10° NNW
BREEZE-M DEB (TANK) 4.2 17:11:17 68° WSW 17:12:28 84° NW 17:39:33 10° NE
ALOS 3.3 17:13:56 10° NNE 17:17:13 43° NE 17:17:13 43° NE
USA 267 3.2 17:12:08 10° SE 17:18:40 80° NE 17:25:14 10° NW
Meteor 2-10 4.3 17:19:46 10° N 17:24:57 74° N 17:24:57 74° N
Cosmos 2237 Rocket 3.2 17:29:27 36° NW 17:29:27 36° NW 17:33:40 10° N
CZ-2C R/B 4.3 17:24:53 10° NE 17:29:13 27° E 17:31:29 20° SE
ADEOS II 3.0 17:28:51 10° N 17:32:33 38° NNW 17:32:33 38° NNW
Meteor 2-4 Rocket 3.7 17:35:46 67° SE 17:36:13 71° E 17:41:43 10° NNE
Cosmos 1328 Rocket 4.2 17:36:43 53° ENE 17:36:43 53° ENE 17:40:38 10° NNE
Cosmos 2112 Rocket 4.3 17:40:55 56° NW 17:40:55 56° NW 17:45:34 10° N
ATLAS 5 CENTAUR R/B 4.1 17:40:18 10° N 17:44:51 29° NE 17:50:14 10° ESE
Cosmos 1340 4.2 17:44:58 10° N 17:46:59 30° NNE 17:46:59 30° NNE
METEOR-M 4.4 17:44:26 10° NNE 17:49:44 62° ESE 17:51:25 41° SSE
Cosmos 1553 Rocket 4.4 17:43:55 10° N 17:50:06 62° E 17:56:08 10° SSE
Cosmos 1633 Rocket 3.7 17:46:56 10° N 17:51:11 52° E 17:52:34 36° SE
Meteor 1-18 Rocket 4.2 17:51:40 54° S 17:53:00 85° E 17:58:45 10° N
NOSS 2-2 (C) 4.2 17:49:18 10° NW 17:54:24 71° WSW 18:01:41 10° SSE
CZ-4 R/B 3.7 17:49:45 10° NNE 17:54:28 79° ESE 17:54:53 72° SSE
Intercosmos 25 Rocket 4.3 17:50:28 10° N 17:54:35 65° E 18:01:11 10° SSE
USA 308 4.5 18:00:24 21° NNW 18:00:24 21° NNW 18:02:54 10° NNE
ATLAS 2AS CENTAUR R/B 3.0 17:59:02 44° WSW 18:01:08 57° NW 18:08:15 10° NNE
YAOGAN 6 3.6 17:58:43 10° NNE 18:01:48 37° E 18:01:53 37° ESE
Cosmos 921 Rocket 3.7 18:03:04 40° NW 18:03:04 40° NW 18:06:23 10° N
Cosmos 494 Rocket 3.8 18:02:52 57° SSW 18:03:56 90° NNW 18:09:06 10° NNE
Cosmos 2278 Rocket 3.8 18:01:55 10° NW 18:03:46 19° NW 18:03:46 19° NW
Cosmos 1975 3.2 18:05:01 10° NNW 18:07:59 50° NNW 18:07:59 50° NNW
Delta 2 Rocket 3.7 18:08:51 59° SSW 18:09:28 65° SSE 18:14:21 10° E
IRS-1D 4.0 18:04:49 10° NNE 18:09:55 60° ESE 18:13:16 22° S
CZ-2D R/B 4.1 18:09:11 10° NNW 18:11:17 14° NW 18:11:17 14° NW
Cosmos 1420 Rocket 4.0 18:09:38 10° NNW 18:14:49 60° WSW 18:17:13 31° S
SL-16 R/B 2.5 18:20:42 39° WSW 18:22:09 47° WNW 18:27:37 10° N
PAYLOAD A 3.8 18:17:32 10° NNE 18:22:22 80° ESE 18:25:03 26° S
Cosmos 2056 Rocket 3.5 18:18:21 10° NNW 18:23:41 60° WSW 18:28:59 10° S
UNK 4.5 18:25:19 33° WNW 18:25:19 33° WNW 18:28:49 10° NNW
ATLAS 5 CENTAUR R/B 3.7 18:24:19 26° SW 18:27:35 29° SSW 18:32:47 10° SE
SEDSat Delta rocket 4.3 18:28:20 31° SW 18:30:51 48° SSE 18:37:07 10° E
USA 290 2.1 18:28:16 10° NNW 18:31:21 79° ENE 18:34:11 12° SSE
Cosmos 1515 Rocket 3.5 18:29:37 32° SSW 18:31:37 74° W 18:36:04 10° N
Cosmos 1624 Rocket 4.2 18:29:47 10° NNW 18:34:45 46° WSW 18:39:40 10° S
SL-16 R/B 3.5 18:41:11 23° W 18:41:20 23° W 18:46:08 10° NW
Cosmos 1470 Rocket 3.5 18:37:37 10° NNW 18:42:00 64° W 18:46:22 10° S
Envisat 3.5 18:38:28 10° N 18:43:11 40° WNW 18:45:23 26° WSW
Cosmos 1943 Rocket 3.1 18:40:37 10° NW 18:45:12 26° WSW 18:46:07 25° WSW
NOSS 3-1 (C) 4.2 18:39:55 10° NNW 18:47:47 88° WSW 18:57:03 10° SSE
Cosmos 1626 3.6 18:48:33 18° WNW 18:48:33 18° WNW 18:50:16 10° NNW
KORONAS-FOTON 3.5 18:49:38 18° SSW 18:52:18 73° W 18:55:56 10° N
ALOS 4.3 18:53:36 10° NW 18:55:09 12° WNW 18:55:33 11° WNW
Cosmos 1331 Rocket 4.5 18:52:00 10° N 18:57:17 65° ENE 19:02:29 10° SSE
Cosmos 1766 3.5 18:57:14 10° NNW 19:00:42 39° W 19:04:08 10° SSW
USA 267 4.2 18:57:03 10° S 19:02:00 23° WSW 19:06:59 10° WNW
ATLAS 3B R/B 3.6 18:54:22 10° NNW 19:02:08 62° NE 19:09:41 10° SE
Cosmos 2266 Rocket 4.2 18:56:39 11° SSW 19:02:11 47° W 19:08:00 10° N
BREEZE-M DEB (TANK) 4.4 19:00:07 10° WNW 19:03:25 16° NW 19:05:25 10° N
ISS -2.0 19:00:58 10° S 19:03:49 27° SE 19:06:40 10° ENE
S3M 4.0 18:59:14 10° NNW 19:05:18 60° W 19:11:27 10° S
CZ-2C R/B 3.4 19:02:45 10° N 19:07:15 31° WNW 19:10:48 15° SW
Cosmos 1933 Rocket 3.5 19:04:46 10° NNW 19:09:03 63° W 19:13:19 10° S
ASTRO E2 2.9 19:14:44 16° WSW 19:17:13 42° S 19:20:35 10° ESE
Cosmos 2369 Rocket 2.1 19:16:26 10° NNW 19:22:00 70° WSW 19:27:31 10° S
Cosmos 2297 3.9 19:16:31 10° NNW 19:22:03 50° WSW 19:27:33 10° S
Cosmos 1484 Rocket 2.7 19:19:49 10° N 19:23:19 56° WNW 19:26:49 10° SSW
Cosmos 1674 3.9 19:21:49 13° WSW 19:23:44 19° WNW 19:26:16 10° NNW
YAOGAN 11 4.4 19:20:34 10° SSE 19:25:01 76° ENE 19:29:33 10° N
Cosmos 1655 Rocket 4.3 19:19:12 10° SSW 19:25:06 45° W 19:31:03 10° N
USA 306 3.5 19:21:52 10° SSW 19:25:29 42° SE 19:28:52 10° ENE
ATLAS 5 CENTAUR R/B 2.7 19:23:40 10° NW 19:28:56 44° WSW 19:35:14 10° S
Chandra Rocket (1) 3.3 19:26:15 11° WSW 19:29:10 36° S 19:36:34 10° ESE
H-2A R/B 2.1 19:25:10 10° N 19:30:12 65° WNW 19:35:21 10° SSW
H-2A R/B 2.4 19:29:18 10° NNE 19:32:38 89° ESE 19:35:57 10° SSW
USA 305 3.4 19:36:08 10° SSE 19:37:13 16° ESE 19:38:28 10° E
Cosmos 1943 3.9 19:33:34 10° SW 19:38:46 37° WNW 19:44:01 10° N
Cosmos 1707 Rocket 3.6 19:35:41 10° S 19:39:59 89° E 19:44:19 10° N
Cosmos 1707 4.1 19:37:27 10° WSW 19:40:07 19° WNW 19:42:48 10° NNW
Meteor 1-23 Rocket 4.2 19:35:33 10° SSW 19:41:13 73° W 19:46:51 10° N
Cosmos 2315 Rocket 4.3 19:35:41 10° NNW 19:41:31 45° W 19:47:22 10° SSW
Cosmos 2263 4.2 19:36:08 10° NNW 19:41:43 66° WSW 19:47:18 10° S
CZ-3 R/B 3.2 19:27:40 10° WSW 19:48:16 52° S 19:54:32 10° ESE
